Powrót do katalogu

SL-16 DEB

AktywnyLEO
NORAD 22349·DEBRIS·🇷🇺 Russia

Wystrzelony Dec 25, 1992 z Baikonur Cosmodrome

Loading…

Następne Przeloty (najbliższe 24 godziny)

TLE

ŚwieżeSource: Space-Track

Epoka: Sep 14, 2026, 14:51 UTC

1 22349U 92093AN  26257.61942160  .00000354  00000-0  32238-3 0  9997
2 22349  70.8186 121.2644 0182557  29.8901   0.6435 13.82812688695240

Śledź SL-16 DEB w czasie rzeczywistym z AllMySat

Download on the App Store